Portland Troutdale, OR

11:33 PM PDT on September 24, 2017 (GMT -0700)
Portland-Troutdale

Weather History for KTTD - June, 2013

Change the Weather History Date:

Sunday, June 2, 2013

  Actual Average Record
Temperature  
Mean Temperature 64 °F 60 °F  
Max Temperature 73 °F 72 °F 96 °F (1970)
Min Temperature 55 °F 49 °F 41 °F (2002)
Degree Days  
Heating Degree Days 1 5  
Month to date heating degree days 4 11  
Cooling Degree Days 0 1  
Month to date cooling degree days 0 2  
Growing Degree Days 14 (Base 50)    
Moisture  
Dew Point 49 °F    
Average Humidity 62    
Maximum Humidity 83    
Minimum Humidity 41    
Precipitation  
Precipitation 0.00 in 0.11 in 0.92 in (1968)
Month to date precipitation T 0.23  
Year to date precipitation 14.83 22.93  
Snow  
Snow 0.00 in - - ()
Month to date snowfall 0.0  
Since 1 June snowfall 0.0  
Snow Depth 0.00 in    
Sea Level Pressure  
Sea Level Pressure 30.05 in    
Wind  
Wind Speed 4 mph (NW)    
Max Wind Speed 13 mph    
Max Gust Speed 18 mph    
Visibility 10 miles    
Events      
T = Trace of Precipitation, MM = Missing Value Source: NWS Daily Summary

Daily Weather History Graph

Daily Weather History Graph

Search for Another Location

Airport or City:

Trip Planner

Search our weather history database for the weather conditions in past years. The results will help you decide how hot, cold, wet, or windy it might be!

Date:

Astronomy

Jun. 02, 2013 Rise Set
Actual Time 5:23 AM PDT 8:52 PM PDT
Civil Twilight 4:46 AM PDT 9:29 PM PDT
Nautical Twilight 3:57 AM PDT 10:18 PM PDT
Astronomical Twilight 2:54 AM PDT 11:22 PM PDT
Moon 2:08 AM PDT (6/2) 3:14 PM PDT (6/2)
Length of Visible Light 16h 43m
Length of Day
15h 29m
Waning Crescent, 30% of the Moon is Illuminated
Jun 2
Waning Crescent
Jun 8
New
Jun 16
First Quarter
Jun 23
Full
Jun 29
Last Quarter

Hourly Weather History & Observations

Time (PDT) Temp. Dew Point Humidity Pressure Visibility Wind Dir Wind Speed Gust Speed Precip Events Conditions
12:53 AM 59.0 °F 48.9 °F 69% 30.02 in 10.0 mi Variable 3.5 mph - N/A   Mostly Cloudy
1:53 AM 57.9 °F 48.0 °F 70% 30.02 in 10.0 mi Variable 3.5 mph - N/A   Overcast
2:53 AM 55.9 °F 48.0 °F 75% 30.03 in 10.0 mi Variable 4.6 mph - N/A   Scattered Clouds
3:53 AM 55.0 °F 48.0 °F 77% 30.04 in 10.0 mi West 3.5 mph - N/A   Partly Cloudy
4:35 AM 55.4 °F 48.2 °F 77% 30.04 in 10.0 mi Calm Calm - N/A   Mostly Cloudy
4:53 AM 55.9 °F 48.9 °F 77% 30.04 in 10.0 mi Calm Calm - N/A   Overcast
5:53 AM 55.9 °F 50.0 °F 80% 30.05 in 10.0 mi Calm Calm - N/A   Overcast
6:53 AM 57.0 °F 50.0 °F 77% 30.06 in 10.0 mi Calm Calm - N/A   Overcast
7:37 AM 57.2 °F 50.0 °F 77% 30.07 in 10.0 mi Calm Calm - N/A   Overcast
7:53 AM 57.0 °F 50.0 °F 77% 30.07 in 10.0 mi Calm Calm - N/A   Overcast
8:53 AM 57.9 °F 50.0 °F 75% 30.07 in 10.0 mi Calm Calm - N/A   Overcast
9:53 AM 59.0 °F 50.0 °F 72% 30.08 in 10.0 mi Calm Calm - N/A   Overcast
10:53 AM 60.1 °F 50.0 °F 69% 30.08 in 10.0 mi Calm Calm - N/A   Overcast
11:28 AM 64.4 °F 51.8 °F 64% 30.07 in 10.0 mi Calm Calm - N/A   Mostly Cloudy
11:42 AM 62.6 °F 50.0 °F 63% 30.07 in 10.0 mi Calm Calm - N/A   Mostly Cloudy
11:53 AM 64.9 °F 51.1 °F 61% 30.06 in 10.0 mi Calm Calm - N/A   Scattered Clouds
12:53 PM 66.9 °F 51.1 °F 57% 30.05 in 10.0 mi Variable 4.6 mph - N/A   Mostly Cloudy
1:53 PM 70.0 °F 48.0 °F 46% 30.04 in 10.0 mi Variable 4.6 mph - N/A   Mostly Cloudy
2:53 PM 73.0 °F 48.0 °F 41% 30.03 in 10.0 mi NW 8.1 mph - N/A   Mostly Cloudy
3:53 PM 71.1 °F 46.9 °F 42% 30.03 in 10.0 mi NW 8.1 mph - N/A   Clear
4:53 PM 72.0 °F 48.0 °F 43% 30.02 in 10.0 mi NW 6.9 mph - N/A   Clear
5:53 PM 72.0 °F 46.9 °F 41% 30.01 in 10.0 mi NW 11.5 mph 17.3 mph N/A   Mostly Cloudy
6:53 PM 70.0 °F 48.0 °F 46% 30.02 in 10.0 mi NW 10.4 mph 17.3 mph N/A   Clear
7:53 PM 68.0 °F 48.9 °F 50% 30.02 in 10.0 mi NNW 6.9 mph - N/A   Clear
8:53 PM 66.0 °F 50.0 °F 56% 30.04 in 10.0 mi NW 6.9 mph - N/A   Clear
9:53 PM 62.1 °F 48.9 °F 62% 30.06 in 10.0 mi NW 6.9 mph - N/A   Clear
10:53 PM 57.9 °F 48.9 °F 72% 30.08 in 10.0 mi WSW 6.9 mph - N/A   Clear
11:53 PM 57.0 °F 48.0 °F 72% 30.08 in 10.0 mi WNW 4.6 mph - N/A   Clear